This is the latest recevied weather packets stored in our database for station/object AJ7DN. If no packets are shown the sender has not sent any weather packets the latest 1 day(s).
| Time | Temp. | Humidity | Pressure | Rain* | Wind** | Luminosity | Snow |
|---|---|---|---|---|---|---|---|
| 1778021598 | 18.33° C | 68% | 1020.2 hPa | 0 mm | 0 m/s | 148 W/m² | - |
| 1778021293 | 17.78° C | 69% | 1020.4 hPa | 0 mm | 0 m/s | 156 W/m² | - |
| 1778020991 | 18.33° C | 67% | 1020.3 hPa | 0 mm | 0.45 m/s, 12° | 154 W/m² | - |
| 1778020688 | 18.33° C | 68% | 1020.2 hPa | 0 mm | 0 m/s | 155 W/m² | - |
| 1778020385 | 18.33° C | 68% | 1020.3 hPa | 0 mm | 0.45 m/s, 72° | 153 W/m² | - |
| 1778020081 | 18.33° C | 68% | 1020.6 hPa | 0 mm | 0 m/s | 149 W/m² | - |
| 1778019777 | 17.78° C | 68% | 1020.5 hPa | 0 mm | 0 m/s | 168 W/m² | - |
| 1778019475 | 17.78° C | 69% | 1020.3 hPa | 0 mm | 0 m/s | 168 W/m² | - |
| 1778019171 | 17.78° C | 69% | 1020.6 hPa | 0 mm | 0 m/s | 156 W/m² | - |
| 1778018868 | 17.78° C | 69% | 1020.5 hPa | 0 mm | 0.45 m/s, 81° | 152 W/m² | - |
| 1778018565 | 17.78° C | 69% | 1020.6 hPa | 0 mm | 0 m/s | 141 W/m² | - |
| 1778018263 | 17.78° C | 69% | 1020.4 hPa | 0 mm | 0 m/s | 151 W/m² | - |
| 1778017961 | 18.33° C | 68% | 1020.6 hPa | 0 mm | 0 m/s | 144 W/m² | - |
| 1778017659 | 17.78° C | 69% | 1020.7 hPa | 0 mm | 0 m/s | 144 W/m² | - |
| 1778017356 | 18.33° C | 68% | 1020.7 hPa | 0 mm | 0.45 m/s, 212° | 161 W/m² | - |
| 1778017053 | 18.33° C | 66% | 1020.5 hPa | 0 mm | 0 m/s | 190 W/m² | - |
| 1778016750 | 18.33° C | 69% | 1020.5 hPa | 0 mm | 0 m/s | 205 W/m² | - |
| 1778016446 | 18.89° C | 68% | 1020.7 hPa | 0 mm | 0.45 m/s, 200° | 208 W/m² | - |
| 1778016144 | 18.89° C | 66% | 1020.8 hPa | 0 mm | 0.45 m/s, 191° | 287 W/m² | - |
| 1778015840 | 18.89° C | 67% | 1020.5 hPa | 0 mm | 0 m/s | 360 W/m² | - |
| 1778015538 | 18.89° C | 67% | 1020.5 hPa | 0 mm | 0 m/s | 389 W/m² | - |
| 1778015234 | 18.33° C | 68% | 1020.7 hPa | 0 mm | 0 m/s | 447 W/m² | - |
| 1778014931 | 18.33° C | 69% | 1020.6 hPa | 0 mm | 0 m/s | 325 W/m² | - |
| 1778014628 | 18.33° C | 69% | 1020.7 hPa | 0 mm | 0 m/s | 273 W/m² | - |
| 1778014327 | 18.33° C | 67% | 1021 hPa | 0 mm | 0.45 m/s, 190° | 462 W/m² | - |
* Rain latest hour (hover to see other rain measurements)
** Current wind speed in m/s (hover to see current wind gust speed)